Regional Weather Roundup
Issued by NWS Kansas City/Pleasant Hill, MO

Home | Current Version | Previous Version | Text Only | Print | Product List | Glossary On
Versions: 1 2 3 4 5 6 7 8 9 10 11 12 13 14 15 16 17 18 19 20 21 22 23 24 25 26 27 28 29 30 31 32 33 34 35 36 37 38 39 40 41 42 43 44 45 46 47 48 49 50
000
ASUS43 KEAX 191610
RWREAX

WEATHER ROUNDUP FOR EASTERN KANSAS AND NORTHWEST MISSOURI
NATIONAL WEATHER SERVICE KANSAS CITY/PLEASANT HILL MO
1100 AM CDT SAT APR 19 2014

KSZ040-057-103>105-MOZ028-029-037-043-191700-
...KANSAS CITY METROPOLITAN AREA...

CITY           SKY/WX    TMP DP  RH WIND       PRES   REMARKS
K.C. INTL      PTSUNNY   71  45  39 S15       30.15S
K.C. DOWNTOWN  MOSUNNY   72  47  40 S10       30.15S
LEES SUMMIT    MOSUNNY   69  46  43 S15       30.17S
OLATHE - IXD   MOSUNNY   69  47  45 S14       30.16F
OLATHE - OJC   MOSUNNY   67  46  47 S14       30.15F
LAWRENCE       MOSUNNY   70  46  42 S13       30.14F

$$

MOZ001>008-011>017-020>025-030>033-038>040-044>046-053-054-191700-
...NORTHERN AND CENTRAL MISSOURI...

CITY           SKY/WX    TMP DP  RH WIND       PRES   REMARKS
ST. JOSEPH     MOSUNNY   71  42  35 S20G29    30.13F
MOSBY          FAIR      68  45  42 S9        30.17S
WHITEMAN AFB   SUNNY     68  46  45 S13       30.20S
CLINTON        SUNNY     70  48  46 S12       30.21S
SEDALIA        SUNNY     70  47  43 S15       30.22S
WARSAW         NOT AVBL
MARSHALL         N/A     73  50  43 S14       30.22S
CHILLICOTHE      N/A     69  45  41 S13G22    30.19S
MOBERLY        SUNNY     68  43  40 S17       30.23S
KIRKSVILLE     SUNNY     68  43  40 S15G22    30.22S

$$

MOZ041-047>049-056>058-063>065-088>090-097-191700-
...EASTERN AND SOUTHERN MISSOURI...

CITY           SKY/WX    TMP DP  RH WIND       PRES   REMARKS
ST. LOUIS INTL MOSUNNY   66  41  40 E7        30.29F
SPIRIT OF STL  SUNNY     67  44  43 E9        30.28F
COLUMBIA       SUNNY     69  44  40 SE14      30.24F
JEFFERSON CITY SUNNY     69  43  38 S10       30.23F
MEXICO         SUNNY     66  45  45 S15       30.24F
HANNIBAL       SUNNY     70  36  28 SE9       30.25F
ROLLA          SUNNY     67  43  41 SE6       30.24F
LEBANON        SUNNY     70  39  32 S10       30.25S
OSAGE BEACH    SUNNY     70  43  37 S9G16     30.25F
SPRINGFIELD    SUNNY     68  47  46 SE14      30.23F
BRANSON        PTSUNNY   66  46  48 E8        30.27S
NEVADA         MOSUNNY   72  48  43 S15G21    30.21S
JOPLIN         MOSUNNY   69  47  45 SW10      30.22R
WEST PLAINS    SUNNY     67  41  38 S8        30.27S

$$

IAZ060-094-KSZ022-034>040-054-083-096-NEZ052-066-093-191700-
...KANSAS...SOUTHEAST NEBRASKA AND IOWA...

CITY           SKY/WX    TMP DP  RH WIND       PRES   REMARKS
TOPEKA         MOSUNNY   71  45  39 S13G20    30.12F
MANHATTAN      PTSUNNY   72  45  37 S20G32    30.06F
EMPORIA        PTSUNNY   69  45  41 S21G28    30.12F
CHANUTE        MOSUNNY   68  46  45 S18       30.18F
WICHITA        CLOUDY    69  46  43 S23G33    30.10F
OMAHA          PTSUNNY   69  43  38 S21G28    30.05F
LINCOLN        MOSUNNY   71  47  42 S20G32    30.03F
LAMONI         SUNNY     65  44  46 S12       30.16S
DES MOINES     PTSUNNY   68  42  38 S18       30.15F

$$




USA.gov is the U.S. government's official web portal to all federal, state and local government web resources and services.